NOAA 16 DEB, 41198

Orbit data source: Space-Track

NOAA 16 DEB, 41198 is space debris in SSO originally from a launch on Thu, 21 Sep 2000 UTC launched from the Air Force Western Test Range (AFWTR). Debris objects in space refer to the collection of defunct objects orbiting the Earth. Examples of debris include non-operational satellites, rocket bodies, and fragments generated from explosions, collisions, or faulty payload assembly.

Loading next visibility...
NOAA 16 DEB details
Identifier
41198, 2000-055DB
Orbit
SSO
Last TLE update22 hours ago
Origin
Flag of USNOAA (US)
ManufacturerUnknown
MissionSpacecraft
Bus & MotorUnknown
MassUnknown
Launch date (UTC)
2000-09-21 (24 years ago)
Launch vehicleUnknown
Launch site
Air Force Western Test Range (AFWTR)
Object type
Payload
Rocket body
Debris
Shape & HBRUnknown
Radar Cross SectionSmall (<0.1 m²)

Expand to show TLE details & history

TLE from 22 hours ago
0 NOAA 16 DEB
1 41198U 00055DB  24346.02993658  .00015044  00000-0  59858-2 0  9995
2 41198  98.9184  70.1404 0024179 340.5392  19.4863 14.28556550462294
Epoch: 2024-12-11T00:43Z
Definitive object data (Epoch: 2024-12-11T00:43:06.52Z)
Latitude-0.00005°
Longitude-20.86724°
Altitude783.127 km
Speed7.471 km/s
True Right ascension04h 40m 33s
True Declination0° 00' 00"
Sunlit
Object was in full shadow at TLE epoch
Visualization TLE readout
Latitude32.77054°
Longitude-25.69726°
Altitude790.789 km
Speed7.466 km/s
Apparent Right ascension06h 27m 16s
Apparent Declination-1° 21' 15"
Sunlit
Object is in full shadow
Visualization observer readout
Local Sidereal Time21:07:31
Azimuth53.692° ENE
Elevation-37.012°
Doppler factor1
Orbital elements
Apogee altitude811.058 km
Perigee altitude776.376 km
Semi-major axis7,171.854 km
Eccentricity0.0024179
Inclination98.9184°
RAAN70.1404°
Arg. of periapsis340.5392°
True anomaly19.57899°
Mean anomaly19.4863°
Eccentric anomaly19.53262°
Mean motion3.57352 °/min
BSTAR0.0059858
Orbital period100.74 mins
Loading maneuver chart data...
Loading historical data...
Loading historical data...
Loading historical data...
Loading historical data...
Loading historical data...
Loading historical data...
Loading historical data...

NOAA 16 DEB Visibility forecast

Observer location: undefined°, undefined

Span
Click to sort rows by Start time (UTC) header in descending order
Start Az.
Max El. time (UTC)
Max El. Az.
Max El.
End time (UTC)
End Az.
9 mins2024-12-12 05:24:28.117Z149.069° SSE2024-12-12 05:29:28.117Z61° ENE40.052°2024-12-12 05:33:28.117Z356.79° N
4 mins2024-12-12 07:07:28.117Z245.126° WSW2024-12-12 07:09:28.117Z271.876° WNW15.557°2024-12-12 07:11:28.117Z297.172° NW
6 mins2024-12-12 17:40:28.117Z54.879° ENE2024-12-12 17:43:28.117Z96.797° ESE20.295°2024-12-12 17:46:28.117Z136.606° SSE
8 mins2024-12-12 19:19:28.117Z354.542° N2024-12-12 19:23:28.117Z275.64° WNW35.055°2024-12-12 19:27:28.117Z220.761° SW
|